SWA4521 KSTL-KTPA

Flight info

Callsign SWA4521
Flight time 1h 49m
Altitude 37000
Route CHUUC6 MYERZ EFOUR ORRKK ARNNY ACORI MAATY5
Aircraft B38M/M-SDE1FGHILORVWXY/HB1

Departure

Time 2026-05-05 20:17
Airport St. Louis Lambert International Airport (KSTL)

Arrival

Time 2026-05-05 22:07
Airport Tampa International Airport (KTPA)
Time Latitude Longitude Altitude Speed Heading
2026-05-05 19:52 38.73795 -90.35545 580 ft 0 kts 210°
2026-05-05 20:12 38.73837 -90.35512 579 ft 9 kts 214°
2026-05-05 20:12 38.73847 -90.35499 580 ft 0 kts 193°
2026-05-05 20:13 38.73838 -90.35489 582 ft 4 kts 121°
2026-05-05 20:13 38.73814 -90.35441 580 ft 9 kts 122°
2026-05-05 20:13 38.73772 -90.35354 584 ft 13 kts 121°
2026-05-05 20:13 38.73745 -90.35256 587 ft 10 kts 65°
2026-05-05 20:14 38.73784 -90.35213 589 ft 5 kts 34°
2026-05-05 20:14 38.73798 -90.35198 590 ft 0 kts 43°
2026-05-05 20:14 38.73800 -90.35195 590 ft 2 kts 47°
2026-05-05 20:14 38.73808 -90.35152 592 ft 8 kts 100°
2026-05-05 20:15 38.73807 -90.35050 595 ft 15 kts 71°
2026-05-05 20:15 38.73768 -90.34911 599 ft 20 kts 122°
2026-05-05 20:15 38.73713 -90.34801 601 ft 12 kts 122°
2026-05-05 20:15 38.73702 -90.34743 600 ft 3 kts 76°
2026-05-05 20:16 38.73711 -90.34720 600 ft 2 kts 56°
2026-05-05 20:16 38.73720 -90.34709 599 ft 2 kts 32°
2026-05-05 20:16 38.73764 -90.34677 599 ft 10 kts 19°
2026-05-05 20:16 38.73809 -90.34707 600 ft 7 kts 302°
2026-05-05 20:17 38.73937 -90.34964 594 ft 71 kts 302°
2026-05-05 20:17 38.74335 -90.35772 582 ft 141 kts 302°
2026-05-05 20:17 38.74926 -90.36995 955 ft 168 kts 305°
2026-05-05 20:17 38.75541 -90.38285 1914 ft 176 kts 307°
2026-05-05 20:18 38.76200 -90.39689 2611 ft 190 kts 307°
2026-05-05 20:18 38.76955 -90.41220 3047 ft 213 kts 308°
2026-05-05 20:18 38.77783 -90.42883 3582 ft 232 kts 304°
2026-05-05 20:18 38.78232 -90.44969 4076 ft 258 kts 269°
2026-05-05 20:19 38.77747 -90.47181 4716 ft 268 kts 235°
2026-05-05 20:19 38.76657 -90.49058 5958 ft 255 kts 233°
2026-05-05 20:19 38.75603 -90.50901 6825 ft 259 kts 227°
2026-05-05 20:19 38.74116 -90.52185 7668 ft 262 kts 204°
2026-05-05 20:20 38.72396 -90.53006 8543 ft 264 kts 203°
2026-05-05 20:20 38.70686 -90.53812 9398 ft 267 kts 203°
2026-05-05 20:20 38.68918 -90.54566 10213 ft 272 kts 195°
2026-05-05 20:20 38.66952 -90.54753 10497 ft 294 kts 184°
2026-05-05 20:21 38.64817 -90.54846 10994 ft 310 kts 187°
2026-05-05 20:21 38.62651 -90.54929 11504 ft 321 kts 187°
2026-05-05 20:21 38.60409 -90.55010 12239 ft 323 kts 188°
2026-05-05 20:21 38.58148 -90.55089 12967 ft 327 kts 188°
2026-05-05 20:22 38.55862 -90.55168 13715 ft 330 kts 189°
2026-05-05 20:22 38.53561 -90.55246 14371 ft 334 kts 189°
2026-05-05 20:22 38.51225 -90.55325 15010 ft 338 kts 189°
2026-05-05 20:22 38.48856 -90.55406 15643 ft 343 kts 189°
2026-05-05 20:23 38.46460 -90.55488 16268 ft 347 kts 189°
2026-05-05 20:23 38.44031 -90.55571 16876 ft 351 kts 189°
2026-05-05 20:23 38.41573 -90.55656 17467 ft 356 kts 185°
2026-05-05 20:23 38.39075 -90.55741 17914 ft 361 kts 188°
2026-05-05 20:24 38.36560 -90.55828 18511 ft 363 kts 184°
2026-05-05 20:24 38.34005 -90.55914 18924 ft 370 kts 189°
2026-05-05 20:24 38.31440 -90.56001 19575 ft 369 kts 189°
2026-05-05 20:24 38.28858 -90.56090 20054 ft 373 kts 189°
2026-05-05 20:25 38.26255 -90.56179 20571 ft 376 kts 189°
2026-05-05 20:25 38.23629 -90.56268 21068 ft 379 kts 190°
2026-05-05 20:25 38.20983 -90.56358 21567 ft 382 kts 190°
2026-05-05 20:25 38.18312 -90.56448 21993 ft 386 kts 191°
2026-05-05 20:26 38.15612 -90.56540 22461 ft 389 kts 191°
2026-05-05 20:26 38.12892 -90.56633 22941 ft 392 kts 191°
2026-05-05 20:26 38.10151 -90.56726 23407 ft 396 kts 191°
2026-05-05 20:26 38.08517 -90.56855 23717 ft 393 kts 189°
2026-05-05 20:27 38.05843 -90.57174 23998 ft 397 kts 194°
2026-05-05 20:27 38.03073 -90.57485 24375 ft 399 kts 195°
2026-05-05 20:27 38.00303 -90.57792 24801 ft 401 kts 195°
2026-05-05 20:27 37.97507 -90.58097 25151 ft 404 kts 195°
2026-05-05 20:28 37.94696 -90.58402 25511 ft 407 kts 195°
2026-05-05 20:28 37.91867 -90.58708 25841 ft 410 kts 195°
2026-05-05 20:28 37.89016 -90.59016 26216 ft 412 kts 195°
2026-05-05 20:28 37.86154 -90.59325 26580 ft 415 kts 195°
2026-05-05 20:29 37.83269 -90.59635 26933 ft 417 kts 195°
2026-05-05 20:29 37.80370 -90.59948 27287 ft 419 kts 195°
2026-05-05 20:29 37.77454 -90.60262 27645 ft 422 kts 195°
2026-05-05 20:29 37.74520 -90.60577 27980 ft 424 kts 195°
2026-05-05 20:30 37.71573 -90.60894 28318 ft 427 kts 195°
2026-05-05 20:30 37.68609 -90.61212 28650 ft 428 kts 194°
2026-05-05 20:30 37.65640 -90.61530 29037 ft 429 kts 194°
2026-05-05 20:30 37.62657 -90.61851 29314 ft 431 kts 195°
2026-05-05 20:31 37.59661 -90.62171 29653 ft 433 kts 195°
2026-05-05 20:31 37.56651 -90.62494 29945 ft 436 kts 195°
2026-05-05 20:31 37.53624 -90.62818 30217 ft 438 kts 195°
2026-05-05 20:31 37.50581 -90.63143 30460 ft 440 kts 195°
2026-05-05 20:32 37.47528 -90.63469 30716 ft 442 kts 195°
2026-05-05 20:32 37.44455 -90.63797 30900 ft 445 kts 195°
2026-05-05 20:32 37.41363 -90.64126 31123 ft 447 kts 195°
2026-05-05 20:32 37.38259 -90.64457 31383 ft 449 kts 195°
2026-05-05 20:33 37.35140 -90.64789 31640 ft 450 kts 195°
2026-05-05 20:33 37.32012 -90.65122 31887 ft 452 kts 196°
2026-05-05 20:33 37.28875 -90.65455 32162 ft 453 kts 196°
2026-05-05 20:33 37.25733 -90.65788 32516 ft 452 kts 196°
2026-05-05 20:34 37.22601 -90.66121 32820 ft 452 kts 197°
2026-05-05 20:34 37.19440 -90.66089 33107 ft 473 kts 183°
2026-05-05 20:34 37.16135 -90.65150 33469 ft 483 kts 178°
2026-05-05 20:34 37.12915 -90.64162 33693 ft 484 kts 178°
2026-05-05 20:35 37.09649 -90.63139 33976 ft 484 kts 178°
2026-05-05 20:35 37.06381 -90.62100 34230 ft 484 kts 178°
2026-05-05 20:35 37.03118 -90.61058 34487 ft 484 kts 178°
2026-05-05 20:35 36.99853 -90.60015 34742 ft 484 kts 178°
2026-05-05 20:36 36.96586 -90.58973 34924 ft 485 kts 179°
2026-05-05 20:36 36.93314 -90.57928 35113 ft 486 kts 179°
2026-05-05 20:36 36.90046 -90.56887 35343 ft 486 kts 179°
2026-05-05 20:36 36.86767 -90.55842 35571 ft 486 kts 179°
2026-05-05 20:37 36.83493 -90.54801 35775 ft 485 kts 179°
2026-05-05 20:37 36.81326 -90.54113 35913 ft 485 kts 179°
2026-05-05 20:37 36.78052 -90.53072 36115 ft 485 kts 179°
2026-05-05 20:37 36.74779 -90.52033 36319 ft 485 kts 179°
2026-05-05 20:38 36.71507 -90.50996 36428 ft 486 kts 179°
2026-05-05 20:38 36.68178 -90.49941 36583 ft 487 kts 179°
2026-05-05 20:38 36.64902 -90.48904 36771 ft 487 kts 179°
2026-05-05 20:39 36.58377 -90.46841 36828 ft 487 kts 179°
2026-05-05 20:39 36.51834 -90.44776 36821 ft 485 kts 179°
2026-05-05 20:40 36.45277 -90.42711 36810 ft 487 kts 179°
2026-05-05 20:40 36.38701 -90.40643 36813 ft 487 kts 179°
2026-05-05 20:41 36.32135 -90.38581 36818 ft 487 kts 179°
2026-05-05 20:41 36.25553 -90.36519 36825 ft 490 kts 179°
2026-05-05 20:42 36.18927 -90.34446 36810 ft 491 kts 179°
2026-05-05 20:42 36.12303 -90.32377 36815 ft 491 kts 179°
2026-05-05 20:43 36.05674 -90.30311 36815 ft 491 kts 179°
2026-05-05 20:43 35.99050 -90.28249 36819 ft 491 kts 179°
2026-05-05 20:44 35.92425 -90.26191 36822 ft 491 kts 179°
2026-05-05 20:44 35.85801 -90.24137 36825 ft 491 kts 179°
2026-05-05 20:45 35.75859 -90.21060 36818 ft 491 kts 179°
2026-05-05 20:45 35.69226 -90.19012 36822 ft 493 kts 179°
2026-05-05 20:46 35.62576 -90.16962 36819 ft 492 kts 179°
2026-05-05 20:46 35.55933 -90.14918 36825 ft 492 kts 179°
2026-05-05 20:47 35.49288 -90.12876 36794 ft 492 kts 179°
2026-05-05 20:47 35.42628 -90.10834 36839 ft 494 kts 179°
2026-05-05 20:48 35.35958 -90.08792 36830 ft 494 kts 179°
2026-05-05 20:48 35.29338 -90.06768 36832 ft 494 kts 179°
2026-05-05 20:49 35.22634 -90.04723 36808 ft 494 kts 179°
2026-05-05 20:49 35.16003 -90.02702 36835 ft 495 kts 179°
2026-05-05 20:50 35.09326 -90.00671 36838 ft 494 kts 179°
2026-05-05 20:50 35.02692 -89.98138 36841 ft 518 kts 162°
2026-05-05 20:51 34.99645 -89.95628 36844 ft 540 kts 146°
2026-05-05 20:51 34.97033 -89.92260 36863 ft 551 kts 137°
2026-05-05 20:51 34.91884 -89.85314 36863 ft 553 kts 139°
2026-05-05 20:52 34.86714 -89.78369 36862 ft 553 kts 139°
2026-05-05 20:52 34.81541 -89.71431 36868 ft 553 kts 139°
2026-05-05 20:53 34.76366 -89.64504 36865 ft 553 kts 139°
2026-05-05 20:53 34.71186 -89.57585 36848 ft 553 kts 139°
2026-05-05 20:54 34.66005 -89.50678 36877 ft 553 kts 139°
2026-05-05 20:54 34.60822 -89.43782 36887 ft 553 kts 139°
2026-05-05 20:55 34.55632 -89.36891 36886 ft 553 kts 139°
2026-05-05 20:55 34.50439 -89.30008 36890 ft 553 kts 139°
2026-05-05 20:56 34.45250 -89.23145 36882 ft 552 kts 139°
2026-05-05 20:56 34.40057 -89.16291 36898 ft 552 kts 139°
2026-05-05 20:57 34.34863 -89.09448 36903 ft 552 kts 139°
2026-05-05 20:57 34.29663 -89.02612 36922 ft 552 kts 139°
2026-05-05 20:58 34.24466 -88.95792 36928 ft 552 kts 139°
2026-05-05 20:58 34.19264 -88.88979 36902 ft 551 kts 139°
2026-05-05 20:59 34.14062 -88.82181 36935 ft 552 kts 139°
2026-05-05 20:59 34.08856 -88.75389 36929 ft 552 kts 139°
2026-05-05 21:00 34.03636 -88.68593 36929 ft 552 kts 139°
2026-05-05 21:00 33.98416 -88.61811 36919 ft 552 kts 139°
2026-05-05 21:01 33.93226 -88.55078 36878 ft 551 kts 139°
2026-05-05 21:01 33.88008 -88.48325 36919 ft 551 kts 139°
2026-05-05 21:02 33.82784 -88.41577 36917 ft 551 kts 138°
2026-05-05 21:02 33.77550 -88.34827 36909 ft 552 kts 139°
2026-05-05 21:03 33.72317 -88.28092 36896 ft 552 kts 139°
2026-05-05 21:03 33.67076 -88.21360 36894 ft 552 kts 139°
2026-05-05 21:04 33.61838 -88.14646 36916 ft 551 kts 139°
2026-05-05 21:04 33.56595 -88.07935 36917 ft 551 kts 138°
2026-05-05 21:05 33.51340 -88.01225 36926 ft 553 kts 139°
2026-05-05 21:05 33.46074 -87.94512 36933 ft 553 kts 139°
2026-05-05 21:06 33.40808 -87.87812 36933 ft 553 kts 139°
2026-05-05 21:06 33.35530 -87.81110 36933 ft 553 kts 139°
2026-05-05 21:07 33.30288 -87.74466 36941 ft 553 kts 139°
2026-05-05 21:07 33.25008 -87.67785 36942 ft 553 kts 138°
2026-05-05 21:08 33.19718 -87.61106 36948 ft 554 kts 138°
2026-05-05 21:08 33.14424 -87.54434 36953 ft 553 kts 138°
2026-05-05 21:09 33.09128 -87.47771 36954 ft 553 kts 139°
2026-05-05 21:09 33.03821 -87.41108 36952 ft 553 kts 139°
2026-05-05 21:10 32.98523 -87.34467 36986 ft 553 kts 139°
2026-05-05 21:10 32.93215 -87.27827 36989 ft 553 kts 138°
2026-05-05 21:11 32.87909 -87.21202 36970 ft 553 kts 138°
2026-05-05 21:11 32.82592 -87.14576 36967 ft 553 kts 138°
2026-05-05 21:12 32.77274 -87.07959 36950 ft 553 kts 138°
2026-05-05 21:12 32.71957 -87.01356 36958 ft 553 kts 138°
2026-05-05 21:13 32.66671 -86.94805 36942 ft 553 kts 138°
2026-05-05 21:13 32.61344 -86.88215 36939 ft 554 kts 138°
2026-05-05 21:14 32.56013 -86.81632 36894 ft 553 kts 138°
2026-05-05 21:14 32.50674 -86.75051 36945 ft 554 kts 138°
2026-05-05 21:15 32.45331 -86.68477 36941 ft 554 kts 138°
2026-05-05 21:15 32.39991 -86.61919 36970 ft 554 kts 138°
2026-05-05 21:16 32.34644 -86.55364 36971 ft 553 kts 138°
2026-05-05 21:16 32.29290 -86.48812 36958 ft 554 kts 138°
2026-05-05 21:17 32.23939 -86.42276 36988 ft 554 kts 138°
2026-05-05 21:17 32.18581 -86.35743 36989 ft 553 kts 138°
2026-05-05 21:18 32.13220 -86.29219 36989 ft 553 kts 138°
2026-05-05 21:18 32.07866 -86.22714 37004 ft 553 kts 138°
2026-05-05 21:19 32.02503 -86.16206 37011 ft 553 kts 138°
2026-05-05 21:19 31.97141 -86.09713 37019 ft 553 kts 138°
2026-05-05 21:20 31.91774 -86.03225 37012 ft 552 kts 138°
2026-05-05 21:20 31.86405 -85.96746 37024 ft 553 kts 138°
2026-05-05 21:21 31.81034 -85.90276 37008 ft 553 kts 138°
2026-05-05 21:21 31.75524 -85.83998 37018 ft 550 kts 143°
2026-05-05 21:22 31.69802 -85.78053 36998 ft 549 kts 143°
2026-05-05 21:22 31.64065 -85.72134 37000 ft 549 kts 143°
2026-05-05 21:23 31.59297 -85.67223 36999 ft 549 kts 143°
2026-05-05 21:23 31.53557 -85.61319 36997 ft 549 kts 143°
2026-05-05 21:24 31.47806 -85.55415 37004 ft 549 kts 143°
2026-05-05 21:24 31.42063 -85.49528 37027 ft 548 kts 143°
2026-05-05 21:25 31.36332 -85.43664 37055 ft 547 kts 143°
2026-05-05 21:25 31.30605 -85.37814 37058 ft 548 kts 143°
2026-05-05 21:26 31.24858 -85.31953 37049 ft 548 kts 143°
2026-05-05 21:26 31.19115 -85.26106 37034 ft 548 kts 143°
2026-05-05 21:27 31.13374 -85.20270 37011 ft 547 kts 143°
2026-05-05 21:27 31.07645 -85.14458 37027 ft 545 kts 143°
2026-05-05 21:28 31.01921 -85.08659 37024 ft 545 kts 143°
2026-05-05 21:28 30.96191 -85.02864 37029 ft 546 kts 143°
2026-05-05 21:29 30.90440 -84.97058 37023 ft 547 kts 143°
2026-05-05 21:29 30.84694 -84.91264 37003 ft 546 kts 143°
2026-05-05 21:30 30.78995 -84.85528 37014 ft 545 kts 143°
2026-05-05 21:30 30.73259 -84.79776 37026 ft 545 kts 143°
2026-05-05 21:31 30.67525 -84.74032 37019 ft 544 kts 143°
2026-05-05 21:31 30.61787 -84.68293 37019 ft 544 kts 143°
2026-05-05 21:32 30.56038 -84.62553 37029 ft 546 kts 143°
2026-05-05 21:32 30.50271 -84.56803 37032 ft 547 kts 143°
2026-05-05 21:33 30.44503 -84.51062 37036 ft 547 kts 143°
2026-05-05 21:33 30.38731 -84.45327 37037 ft 546 kts 143°
2026-05-05 21:34 30.32963 -84.39601 37040 ft 546 kts 143°
2026-05-05 21:34 30.27190 -84.33871 37000 ft 546 kts 143°
2026-05-05 21:35 30.21436 -84.28169 37051 ft 544 kts 143°
2026-05-05 21:35 30.15679 -84.22473 37042 ft 545 kts 143°
2026-05-05 21:36 30.09916 -84.16780 37044 ft 545 kts 143°
2026-05-05 21:36 30.04156 -84.11099 37041 ft 545 kts 143°
2026-05-05 21:37 29.98389 -84.05420 37036 ft 545 kts 143°
2026-05-05 21:37 29.92631 -83.99759 37028 ft 544 kts 143°
2026-05-05 21:38 29.89743 -83.96924 36852 ft 544 kts 143°
2026-05-05 21:38 29.86874 -83.94107 36578 ft 540 kts 143°
2026-05-05 21:38 29.84052 -83.91340 36478 ft 526 kts 143°
2026-05-05 21:38 29.81161 -83.88854 36150 ft 511 kts 156°
2026-05-05 21:39 29.78061 -83.86884 35561 ft 511 kts 156°
2026-05-05 21:39 29.74955 -83.84860 34827 ft 516 kts 155°
2026-05-05 21:39 29.71819 -83.82827 34166 ft 519 kts 155°
2026-05-05 21:39 29.68711 -83.80821 33540 ft 519 kts 155°
2026-05-05 21:40 29.65570 -83.78797 32940 ft 517 kts 155°
2026-05-05 21:40 29.62434 -83.76779 32381 ft 515 kts 155°
2026-05-05 21:40 29.59314 -83.74773 31785 ft 514 kts 155°
2026-05-05 21:40 29.56192 -83.72766 31190 ft 514 kts 154°
2026-05-05 21:41 29.53069 -83.70760 30599 ft 514 kts 154°
2026-05-05 21:41 29.49950 -83.68759 30012 ft 513 kts 154°
2026-05-05 21:41 29.46836 -83.66762 29354 ft 512 kts 154°
2026-05-05 21:41 29.43731 -83.64773 28782 ft 509 kts 154°
2026-05-05 21:42 29.40647 -83.62798 28255 ft 506 kts 154°
2026-05-05 21:42 29.37588 -83.60840 27684 ft 503 kts 154°
2026-05-05 21:42 29.34546 -83.58895 27162 ft 499 kts 154°
2026-05-05 21:42 29.31523 -83.56963 26642 ft 496 kts 154°
2026-05-05 21:43 29.28516 -83.55042 26120 ft 493 kts 154°
2026-05-05 21:43 29.25528 -83.53134 25611 ft 490 kts 154°
2026-05-05 21:43 29.22561 -83.51243 25091 ft 487 kts 154°
2026-05-05 21:43 29.19602 -83.49360 24543 ft 486 kts 154°
2026-05-05 21:44 29.16663 -83.47490 24081 ft 482 kts 154°
2026-05-05 21:44 29.13741 -83.45632 23569 ft 479 kts 154°
2026-05-05 21:44 29.10839 -83.43787 22984 ft 476 kts 154°
2026-05-05 21:44 29.07959 -83.41958 22462 ft 471 kts 154°
2026-05-05 21:45 29.05110 -83.40151 21980 ft 466 kts 154°
2026-05-05 21:45 29.02287 -83.38358 21480 ft 463 kts 154°
2026-05-05 21:45 28.99485 -83.36580 21016 ft 459 kts 154°
2026-05-05 21:45 28.96712 -83.34821 20584 ft 454 kts 154°
2026-05-05 21:46 28.93959 -83.33076 20121 ft 451 kts 154°
2026-05-05 21:46 28.91261 -83.31367 19662 ft 448 kts 154°
2026-05-05 21:46 28.88547 -83.29648 19198 ft 445 kts 153°
2026-05-05 21:46 28.85850 -83.27941 18739 ft 443 kts 153°
2026-05-05 21:47 28.83162 -83.26242 18271 ft 441 kts 153°
2026-05-05 21:47 28.80488 -83.24552 17769 ft 438 kts 153°
2026-05-05 21:47 28.77832 -83.22874 17280 ft 435 kts 153°
2026-05-05 21:47 28.75232 -83.21233 16841 ft 431 kts 153°
2026-05-05 21:48 28.72625 -83.19589 16399 ft 427 kts 153°
2026-05-05 21:48 28.70057 -83.17969 15963 ft 424 kts 153°
2026-05-05 21:48 28.67486 -83.16350 15393 ft 422 kts 153°
2026-05-05 21:48 28.64925 -83.14736 15023 ft 417 kts 153°
2026-05-05 21:49 28.62392 -83.13142 14608 ft 414 kts 153°
2026-05-05 21:49 28.59885 -83.11563 14177 ft 411 kts 153°
2026-05-05 21:49 28.57392 -83.09996 13729 ft 409 kts 153°
2026-05-05 21:49 28.54901 -83.08431 13175 ft 414 kts 153°
2026-05-05 21:50 28.52361 -83.06836 12720 ft 419 kts 153°
2026-05-05 21:50 28.49774 -83.05212 12336 ft 432 kts 153°
2026-05-05 21:50 28.47149 -83.03564 12497 ft 431 kts 153°
2026-05-05 21:50 28.44525 -83.01919 12667 ft 431 kts 153°
2026-05-05 21:51 28.41899 -83.00273 12805 ft 431 kts 153°
2026-05-05 21:51 28.39264 -82.98624 12913 ft 433 kts 153°
2026-05-05 21:51 28.36623 -82.96971 12999 ft 435 kts 153°
2026-05-05 21:51 28.33968 -82.95309 13048 ft 437 kts 153°
2026-05-05 21:52 28.28992 -82.91341 13051 ft 445 kts 129°
2026-05-05 21:52 28.27519 -82.88274 13052 ft 443 kts 106°
2026-05-05 21:52 28.27151 -82.84903 12949 ft 420 kts 85°
2026-05-05 21:53 28.27404 -82.81662 12211 ft 408 kts 84°
2026-05-05 21:53 28.27568 -82.78473 11402 ft 401 kts 85°
2026-05-05 21:53 28.27689 -82.75336 10772 ft 398 kts 86°
2026-05-05 21:53 28.27791 -82.72223 10487 ft 390 kts 87°
2026-05-05 21:54 28.27891 -82.69196 10271 ft 379 kts 84°
2026-05-05 21:54 28.28619 -82.66400 10103 ft 363 kts 58°
2026-05-05 21:54 28.30244 -82.64346 10016 ft 343 kts 31°
2026-05-05 21:54 28.32374 -82.63385 9956 ft 322 kts
2026-05-05 21:55 28.34557 -82.63156 9869 ft 309 kts
2026-05-05 21:55 28.36639 -82.62994 9741 ft 299 kts
2026-05-05 21:55 28.38672 -82.62836 9581 ft 285 kts
2026-05-05 21:55 28.40620 -82.62689 9314 ft 278 kts
2026-05-05 21:56 28.42555 -82.62551 9052 ft 278 kts
2026-05-05 21:56 28.44482 -82.62421 8779 ft 278 kts
2026-05-05 21:56 28.46425 -82.62302 8342 ft 281 kts
2026-05-05 21:56 28.48331 -82.61885 7798 ft 282 kts 25°
2026-05-05 21:57 28.49787 -82.60428 7288 ft 282 kts 59°
2026-05-05 21:57 28.50317 -82.58335 6804 ft 277 kts 93°
2026-05-05 21:57 28.49766 -82.56289 6317 ft 270 kts 126°
2026-05-05 21:57 28.48463 -82.54782 5860 ft 269 kts 144°
2026-05-05 21:58 28.46775 -82.53859 5378 ft 274 kts 166°
2026-05-05 21:58 28.44858 -82.53716 4918 ft 280 kts 180°
2026-05-05 21:58 28.42892 -82.53715 4421 ft 286 kts 179°
2026-05-05 21:58 28.40909 -82.53693 4014 ft 282 kts 179°
2026-05-05 21:59 28.39003 -82.53668 3880 ft 266 kts 179°
2026-05-05 21:59 28.37191 -82.53640 3745 ft 254 kts 179°
2026-05-05 21:59 28.35448 -82.53609 3635 ft 247 kts 179°
2026-05-05 21:59 28.33764 -82.53577 3501 ft 240 kts 179°
2026-05-05 22:00 28.32118 -82.53543 3382 ft 234 kts 178°
2026-05-05 22:00 28.30494 -82.53508 3292 ft 233 kts 178°
2026-05-05 22:00 28.28870 -82.53460 3142 ft 233 kts 175°
2026-05-05 22:00 28.27267 -82.53330 3101 ft 232 kts 176°
2026-05-05 22:01 28.25688 -82.53279 3055 ft 222 kts 179°
2026-05-05 22:01 28.24189 -82.53295 3026 ft 209 kts 181°
2026-05-05 22:01 28.22771 -82.53336 2998 ft 203 kts 181°
2026-05-05 22:01 28.21359 -82.53381 2999 ft 202 kts 181°
2026-05-05 22:02 28.19954 -82.53428 3001 ft 202 kts 181°
2026-05-05 22:02 28.18556 -82.53475 2998 ft 202 kts 181°
2026-05-05 22:02 28.17154 -82.53524 3016 ft 197 kts 181°
2026-05-05 22:02 28.15839 -82.53569 2999 ft 185 kts 181°
2026-05-05 22:03 28.14559 -82.53614 2948 ft 184 kts 180°
2026-05-05 22:03 28.13286 -82.53657 2690 ft 181 kts 181°
2026-05-05 22:03 28.12026 -82.53701 2451 ft 181 kts 180°
2026-05-05 22:03 28.10769 -82.53743 2237 ft 181 kts 181°
2026-05-05 22:04 28.09530 -82.53786 2004 ft 179 kts 181°
2026-05-05 22:04 28.08270 -82.53828 1768 ft 179 kts 181°
2026-05-05 22:04 28.07029 -82.53871 1539 ft 178 kts 181°
2026-05-05 22:04 28.05819 -82.53912 1294 ft 165 kts 181°
2026-05-05 22:05 28.04734 -82.53949 1090 ft 152 kts 181°
2026-05-05 22:05 28.03703 -82.53985 902 ft 149 kts 182°
2026-05-05 22:05 28.02664 -82.54018 712 ft 149 kts 184°
2026-05-05 22:05 28.01627 -82.54057 505 ft 149 kts 183°
2026-05-05 22:06 28.00582 -82.54087 361 ft 149 kts 184°
2026-05-05 22:06 27.99556 -82.54123 140 ft 148 kts 185°
2026-05-05 22:06 27.98589 -82.54159 53 ft 119 kts 182°
2026-05-05 22:06 27.98015 -82.54179 49 ft 52 kts 181°
2026-05-05 22:07 27.97694 -82.54191 49 ft 44 kts 182°
2026-05-05 22:07 27.97488 -82.54178 51 ft 18 kts 167°
2026-05-05 22:07 27.97424 -82.54134 51 ft 9 kts 114°
2026-05-05 22:07 27.97442 -82.54081 50 ft 8 kts 26°
2026-05-05 22:08 27.97502 -82.54068 50 ft 10 kts
2026-05-05 22:08 27.97571 -82.54066 49 ft 8 kts
2026-05-05 22:08 27.97588 -82.54027 49 ft 6 kts 99°
2026-05-05 22:08 27.97552 -82.53988 49 ft 9 kts 147°
2026-05-05 22:09 27.97507 -82.53912 47 ft 14 kts 117°
2026-05-05 22:09 27.97451 -82.53814 49 ft 15 kts 123°
2026-05-05 22:09 27.97381 -82.53697 53 ft 21 kts 123°
2026-05-05 22:09 27.97321 -82.53509 47 ft 29 kts 100°
2026-05-05 22:10 27.97311 -82.53266 45 ft 32 kts 91°
2026-05-05 22:10 27.97306 -82.53071 45 ft 14 kts 92°
2026-05-05 22:10 27.97343 -82.52996 44 ft 13 kts 18°
2026-05-05 22:10 27.97438 -82.52988 42 ft 15 kts
2026-05-05 22:11 27.97545 -82.52985 43 ft 16 kts
2026-05-05 22:11 27.97623 -82.52984 44 ft 17 kts
2026-05-05 22:11 27.97749 -82.52980 44 ft 19 kts
2026-05-05 22:11 27.97890 -82.52976 44 ft 21 kts
2026-05-05 22:12 27.98041 -82.52970 44 ft 23 kts
2026-05-05 22:12 27.98166 -82.52966 44 ft 19 kts
2026-05-05 22:12 27.98281 -82.52965 43 ft 12 kts 359°
2026-05-05 22:12 27.98340 -82.53014 43 ft 9 kts 313°
2026-05-05 22:13 27.98362 -82.53040 42 ft 5 kts 314°
2026-05-05 22:13 27.98391 -82.53072 45 ft 7 kts 315°
2026-05-05 22:13 27.98433 -82.53119 45 ft 10 kts 315°
2026-05-05 22:13 27.98468 -82.53169 45 ft 4 kts 282°
2026-05-05 22:14 27.98456 -82.53194 43 ft 4 kts 227°
2026-05-05 22:14 27.98431 -82.53212 45 ft 1 kts 210°
2026-05-05 22:14 27.98426 -82.53215 45 ft 0 kts 210°